• In Schweiz
  • Länderverzeichnis
  • Für 7 Tage
  • Wassertemperatur
  • Satellitenkarten
  • Wetterkarte
  • Widgets
  • user-avatar
    Anmelden

    Stündliche Wetter Krasnodvorsk

    Heute, 25 Mai, Freitag

    Zeit Temperatur Niederschläge Wind Luftdruck Luftfeuchtigkeit
    00:00 +19°C° 0,1 mm 2 m/S 758 mmHg 89%
    01:00 +19°C° 0 mm 2 m/S 758 mmHg 89%
    02:00 +19°C° 0 mm 2 m/S 758 mmHg 90%
    03:00 +19°C° 0 mm 2 m/S 757 mmHg 90%
    04:00 +19°C° 0,4 mm 2 m/S 757 mmHg 90%
    05:00 +19°C° 0,4 mm 2 m/S 757 mmHg 90%
    06:00 +20°C° 0,4 mm 2 m/S 757 mmHg 89%
    07:00 +21°C° 0 mm 2 m/S 757 mmHg 84%
    08:00 +24°C° 0 mm 2 m/S 757 mmHg 79%
    09:00 +25°C° 0 mm 2 m/S 757 mmHg 73%
    10:00 +26°C° 0 mm 2 m/S 757 mmHg 69%
    11:00 +27°C° 0 mm 3 m/S 757 mmHg 65%
    12:00 +28°C° 0 mm 3 m/S 757 mmHg 61%
    13:00 +28°C° 0,6 mm 3 m/S 757 mmHg 61%
    14:00 +28°C° 0,6 mm 3 m/S 757 mmHg 62%
    15:00 +29°C° 0,6 mm 4 m/S 757 mmHg 62%
    16:00 +28°C° 0,4 mm 4 m/S 757 mmHg 65%
    17:00 +28°C° 0,4 mm 4 m/S 757 mmHg 68%
    18:00 +27°C° 0,4 mm 3 m/S 757 mmHg 71%
    19:00 +25°C° 0 mm 3 m/S 757 mmHg 76%
    20:00 +23°C° 0 mm 4 m/S 757 mmHg 80%
    21:00 +21°C° 0 mm 4 m/S 757 mmHg 85%
    22:00 +21°C° 0 mm 3 m/S 758 mmHg 87%
    23:00 +20°C° 0 mm 3 m/S 758 mmHg 89%

    Morgen, 26 Mai, Samstag

    Zeit Temperatur Niederschläge Wind Luftdruck Luftfeuchtigkeit
    00:00 +19°C° 0 mm 3 m/S 758 mmHg 92%
    01:00 +19°C° 0 mm 4 m/S 758 mmHg 92%
    02:00 +19°C° 0 mm 5 m/S 759 mmHg 91%
    03:00 +19°C° 0 mm 6 m/S 759 mmHg 91%
    04:00 +17°C° 0 mm 7 m/S 760 mmHg 87%
    05:00 +16°C° 0 mm 8 m/S 760 mmHg 82%
    06:00 +16°C° 0 mm 9 m/S 761 mmHg 78%
    07:00 +16°C° 0 mm 9 m/S 762 mmHg 74%
    08:00 +16°C° 0 mm 9 m/S 762 mmHg 71%
    09:00 +16°C° 0 mm 9 m/S 763 mmHg 67%
    10:00 +17°C° 0 mm 9 m/S 764 mmHg 64%
    11:00 +18°C° 0 mm 9 m/S 764 mmHg 60%
    12:00 +19°C° 0 mm 10 m/S 765 mmHg 57%
    13:00 +19°C° 0 mm 10 m/S 765 mmHg 55%
    14:00 +19°C° 0 mm 10 m/S 765 mmHg 52%
    15:00 +19°C° 0 mm 10 m/S 765 mmHg 50%
    16:00 +19°C° 0 mm 9 m/S 766 mmHg 52%
    17:00 +18°C° 0 mm 8 m/S 766 mmHg 53%
    18:00 +18°C° 0 mm 7 m/S 766 mmHg 55%
    19:00 +17°C° 0 mm 7 m/S 767 mmHg 54%
    20:00 +16°C° 0 mm 7 m/S 767 mmHg 52%
    21:00 +15°C° 0 mm 7 m/S 768 mmHg 50%
    22:00 +14°C° 0 mm 7 m/S 768 mmHg 50%
    23:00 +14°C° 0 mm 7 m/S 768 mmHg 51%

    übermorgen, 27 Mai, Sonntag

    Zeit Temperatur Niederschläge Wind Luftdruck Luftfeuchtigkeit
    00:00 +12°C° 0 mm 7 m/S 769 mmHg 51%
    01:00 +12°C° 0 mm 7 m/S 769 mmHg 52%
    02:00 +11°C° 0 mm 7 m/S 769 mmHg 52%
    03:00 +11°C° 0 mm 7 m/S 769 mmHg 53%
    04:00 +11°C° 0 mm 7 m/S 769 mmHg 56%
    05:00 +10°C° 0 mm 7 m/S 769 mmHg 58%
    06:00 +10°C° 0 mm 7 m/S 769 mmHg 61%
    07:00 +11°C° 0 mm 8 m/S 769 mmHg 59%
    08:00 +13°C° 0 mm 8 m/S 769 mmHg 57%
    09:00 +15°C° 0 mm 8 m/S 770 mmHg 55%
    10:00 +16°C° 0 mm 8 m/S 769 mmHg 52%
    11:00 +18°C° 0 mm 8 m/S 769 mmHg 50%
    12:00 +20°C° 0 mm 8 m/S 769 mmHg 48%
    13:00 +20°C° 0 mm 8 m/S 768 mmHg 48%
    14:00 +21°C° 0 mm 8 m/S 768 mmHg 47%
    15:00 +21°C° 0 mm 8 m/S 768 mmHg 47%
    16:00 +21°C° 0 mm 7 m/S 767 mmHg 50%
    17:00 +21°C° 0 mm 6 m/S 767 mmHg 53%
    18:00 +20°C° 0 mm 5 m/S 767 mmHg 57%
    19:00 +19°C° 0 mm 5 m/S 767 mmHg 57%
    20:00 +17°C° 0 mm 5 m/S 767 mmHg 57%
    21:00 +16°C° 0 mm 5 m/S 767 mmHg 57%
    22:00 +15°C° 0 mm 5 m/S 766 mmHg 56%
    23:00 +15°C° 0 mm 5 m/S 766 mmHg 55%

    28 Mai, Montag

    Zeit Temperatur Niederschläge Wind Luftdruck Luftfeuchtigkeit
    00:00 +14°C° 0 mm 5 m/S 766 mmHg 53%
    01:00 +14°C° 0 mm 5 m/S 766 mmHg 54%
    02:00 +13°C° 0 mm 5 m/S 766 mmHg 55%
    03:00 +12°C° 0 mm 5 m/S 766 mmHg 56%
    04:00 +12°C° 0 mm 5 m/S 766 mmHg 59%
    05:00 +12°C° 0 mm 5 m/S 766 mmHg 61%
    06:00 +12°C° 0 mm 5 m/S 766 mmHg 63%
    07:00 +14°C° 0 mm 6 m/S 766 mmHg 59%
    08:00 +16°C° 0 mm 6 m/S 766 mmHg 55%
    09:00 +18°C° 0 mm 7 m/S 766 mmHg 50%
    10:00 +20°C° 0 mm 7 m/S 766 mmHg 48%
    11:00 +21°C° 0 mm 7 m/S 766 mmHg 45%
    12:00 +23°C° 0 mm 7 m/S 766 mmHg 42%
    13:00 +23°C° 0 mm 7 m/S 766 mmHg 42%
    14:00 +24°C° 0 mm 7 m/S 766 mmHg 42%
    15:00 +24°C° 0 mm 6 m/S 765 mmHg 43%
    16:00 +24°C° 0 mm 6 m/S 765 mmHg 47%
    17:00 +23°C° 0 mm 5 m/S 765 mmHg 51%
    18:00 +23°C° 0 mm 4 m/S 765 mmHg 55%
    19:00 +21°C° 0 mm 4 m/S 765 mmHg 56%
    20:00 +20°C° 0 mm 4 m/S 766 mmHg 56%
    21:00 +18°C° 0 mm 4 m/S 766 mmHg 57%
    22:00 +17°C° 0 mm 4 m/S 766 mmHg 58%
    23:00 +16°C° 0 mm 5 m/S 766 mmHg 60%

    29 Mai, Dienstag

    Zeit Temperatur Niederschläge Wind Luftdruck Luftfeuchtigkeit
    00:00 +16°C° 0 mm 5 m/S 766 mmHg 61%
    01:00 +15°C° 0 mm 5 m/S 766 mmHg 64%
    02:00 +15°C° 0 mm 6 m/S 766 mmHg 67%
    03:00 +15°C° 0 mm 6 m/S 767 mmHg 70%
    04:00 +15°C° 0 mm 6 m/S 767 mmHg 70%
    05:00 +14°C° 0 mm 6 m/S 767 mmHg 69%
    06:00 +14°C° 0 mm 7 m/S 767 mmHg 69%
    07:00 +15°C° 0 mm 7 m/S 768 mmHg 65%
    08:00 +17°C° 0 mm 7 m/S 768 mmHg 61%
    09:00 +18°C° 0 mm 7 m/S 768 mmHg 57%
    10:00 +20°C° 0 mm 8 m/S 768 mmHg 54%
    11:00 +21°C° 0 mm 8 m/S 768 mmHg 51%
    12:00 +22°C° 0 mm 8 m/S 768 mmHg 49%
    13:00 +22°C° 0 mm 8 m/S 767 mmHg 48%
    14:00 +22°C° 0 mm 8 m/S 767 mmHg 47%
    15:00 +22°C° 0 mm 8 m/S 767 mmHg 46%
    16:00 +22°C° 0 mm 7 m/S 767 mmHg 49%
    17:00 +21°C° 0 mm 7 m/S 767 mmHg 51%
    18:00 +21°C° 0 mm 6 m/S 767 mmHg 54%
    19:00 +19°C° 0 mm 6 m/S 767 mmHg 54%
    20:00 +17°C° 0 mm 6 m/S 767 mmHg 55%
    21:00 +16°C° 0 mm 5 m/S 767 mmHg 56%
    22:00 +15°C° 0 mm 6 m/S 767 mmHg 55%
    23:00 +15°C° 0 mm 6 m/S 767 mmHg 54%

    30 Mai, Mittwoch

    Zeit Temperatur Niederschläge Wind Luftdruck Luftfeuchtigkeit
    00:00 +15°C° 0 mm 6 m/S 767 mmHg 54%
    01:00 +14°C° 0 mm 6 m/S 767 mmHg 55%
    02:00 +13°C° 0 mm 5 m/S 767 mmHg 57%
    03:00 +13°C° 0 mm 5 m/S 767 mmHg 59%
    04:00 +13°C° 0 mm 5 m/S 767 mmHg 62%
    05:00 +13°C° 0 mm 5 m/S 767 mmHg 65%
    06:00 +13°C° 0 mm 5 m/S 767 mmHg 67%
    07:00 +15°C° 0 mm 5 m/S 767 mmHg 62%
    08:00 +17°C° 0 mm 6 m/S 767 mmHg 56%
    09:00 +20°C° 0 mm 6 m/S 767 mmHg 51%
    10:00 +21°C° 0 mm 6 m/S 767 mmHg 49%
    11:00 +22°C° 0 mm 6 m/S 766 mmHg 48%
    12:00 +23°C° 0 mm 6 m/S 766 mmHg 47%
    13:00 +23°C° 0 mm 6 m/S 765 mmHg 47%
    14:00 +25°C° 0 mm 5 m/S 765 mmHg 46%
    15:00 +25°C° 0 mm 5 m/S 764 mmHg 46%
    16:00 +25°C° 0 mm 4 m/S 764 mmHg 49%
    17:00 +25°C° 0 mm 4 m/S 764 mmHg 52%
    18:00 +25°C° 0 mm 3 m/S 763 mmHg 55%
    19:00 +22°C° 0 mm 3 m/S 763 mmHg 58%
    20:00 +20°C° 0 mm 3 m/S 763 mmHg 60%
    21:00 +18°C° 0 mm 2 m/S 763 mmHg 63%
    22:00 +18°C° 0 mm 2 m/S 763 mmHg 63%
    23:00 +17°C° 0 mm 2 m/S 763 mmHg 63%
    Mehr zeigen